map of WMH home
Great Circle Mapper logo
WMH - Airport
Location
City:  Mountain Home, Arkansas, United States
Name:Baxter County Airport
ICAO / IATA:KBPK / WMH
FAA:BPK

Details
Type:Airport (Airfield)
Use:Public/Civil
Latitude:3622'08"N (36.368942)
Longitude:9228'14"W (-92.470527)
Datum:WGS 1984
Elevation:928 ft (283 m)
Variation:0.6E (WMM2015 magnetic declination)
Runways:1
Longest:5001 × 75 ft (1524 × 23 m), paved

Time
Time Zone:UTC-6 (DST-5)
Local Time:

Weather
METAR:KBPK 191753Z AUTO 11006KT 5SM BR OVC008 03/02 A3026 RMK AO2 SLP251 T00280017 10033 20028 58001
TAF:KBPK 191744Z 1918/2018 11004KT 5SM BR OVC007
FM200200 12003KT 3SM BR OVC005
FM200900 12003KT 1/4SM FG VV001
FM201530 13004KT 3SM BR OVC005
FM201700 14005KT 5SM BR OVC012

Related Locations
Nearby:
Farthest:MGV: 10879 mi / 17508 km
Margaret River, WA, AU

Find:

   beyond  
but within

Other Information
Maps:
NOTAMs:
Links:
Sources:

  
flag of United States
flag of Arkansas
  

Sectional Chart

Flight Planning
at skyvector.com

Satellite Image

Google Maps Satellite View

 

Copyright © 2004-2014 Karl L. Swartz. All rights reserved.
The Great Circle Mapper name and logo are trademarks of the Great Circle Mapper.
All other trademarks mentioned herein belong to their respective owners.
Please see credits for attibutions and further copyright information.

  Follow gcmap on Facebook Follow gcmap on Twitter

hCard Microformat

Geo Microformat